TimeCST,TemperatureF,Dew PointF,Humidity,Sea Level PressureIn,VisibilityMPH,Wind Direction,Wind SpeedMPH,Gust SpeedMPH,PrecipitationIn,Events,Conditions,WindDirDegrees,DateUTC
12:24 AM,26.6,23.0,86,29.97,2.5,NW,8.1,-,0.00,Snow,Light Snow,310,2012-12-29 06:24:00
12:55 AM,26.1,23.0,88,30.02,2.5,NW,9.2,-,0.00,Snow,Light Snow,310,2012-12-29 06:55:00
1:55 AM,25.0,21.0,85,30.04,3.0,NW,12.7,-,0.00,Snow,Light Snow,320,2012-12-29 07:55:00
2:55 AM,24.1,19.0,81,30.06,4.0,NNW,10.4,-,0.00,Snow,Light Snow,330,2012-12-29 08:55:00
3:06 AM,24.8,19.4,80,30.02,5.0,NNW,11.5,-,0.00,,Haze,330,2012-12-29 09:06:00
3:55 AM,23.0,18.0,81,30.08,6.0,NW,13.8,-,0.00,,Haze,310,2012-12-29 09:55:00
4:12 AM,21.2,17.6,86,30.04,7.0,NW,10.4,21.9,N/A,,Overcast,320,2012-12-29 10:12:00
4:19 AM,21.2,17.6,86,30.04,7.0,NW,8.1,17.3,N/A,,Overcast,320,2012-12-29 10:19:00
4:41 AM,21.2,17.6,86,30.05,6.0,NW,11.5,18.4,N/A,,Overcast,320,2012-12-29 10:41:00
4:55 AM,21.0,16.0,81,30.10,6.0,NW,9.2,-,N/A,,Haze,310,2012-12-29 10:55:00
5:03 AM,19.4,15.8,86,30.05,6.0,NW,11.5,-,N/A,,Mostly Cloudy,320,2012-12-29 11:03:00
5:44 AM,19.4,15.8,86,30.07,6.0,WNW,10.4,-,N/A,,Overcast,300,2012-12-29 11:44:00
5:55 AM,19.4,15.8,86,30.07,6.0,NW,10.4,-,N/A,,Overcast,310,2012-12-29 11:55:00
6:55 AM,19.9,16.0,85,30.16,5.0,WNW,9.2,-,N/A,,Overcast,300,2012-12-29 12:55:00
7:55 AM,19.0,15.1,85,30.18,5.0,WNW,13.8,-,N/A,,Overcast,300,2012-12-29 13:55:00
8:55 AM,18.0,14.0,84,30.21,4.0,WNW,13.8,20.7,N/A,,Overcast,300,2012-12-29 14:55:00
9:55 AM,18.0,12.9,81,30.24,6.0,West,10.4,-,N/A,,Haze,270,2012-12-29 15:55:00
10:55 AM,18.0,12.9,81,30.25,6.0,WNW,12.7,-,N/A,,Haze,290,2012-12-29 16:55:00
11:55 AM,19.9,14.0,78,30.25,8.0,WNW,12.7,-,N/A,,Mostly Cloudy,300,2012-12-29 17:55:00
12:34 PM,19.4,14.0,80,30.19,8.0,West,12.7,-,N/A,,Mostly Cloudy,270,2012-12-29 18:34:00
12:55 PM,21.0,14.0,74,30.24,7.0,West,11.5,-,N/A,,Scattered Clouds,270,2012-12-29 18:55:00
1:55 PM,23.0,14.0,68,30.24,8.0,West,10.4,-,N/A,,Clear,270,2012-12-29 19:55:00
2:55 PM,25.0,15.1,66,30.25,9.0,West,9.2,-,N/A,,Clear,260,2012-12-29 20:55:00
3:55 PM,25.0,15.1,66,30.26,10.0,West,9.2,-,N/A,,Clear,270,2012-12-29 21:55:00
4:55 PM,23.0,15.1,72,30.27,10.0,West,8.1,-,N/A,,Clear,260,2012-12-29 22:55:00
5:55 PM,21.9,14.0,72,30.29,10.0,West,5.8,-,N/A,,Clear,260,2012-12-29 23:55:00
6:55 PM,19.9,14.0,78,30.31,10.0,SW,4.6,-,N/A,,Clear,230,2012-12-30 00:55:00
7:55 PM,19.0,12.9,77,30.31,10.0,SW,4.6,-,N/A,,Clear,230,2012-12-30 01:55:00
8:55 PM,19.9,14.0,78,30.32,10.0,SW,5.8,-,N/A,,Clear,230,2012-12-30 02:55:00
9:55 PM,19.9,14.0,78,30.32,10.0,SW,5.8,-,N/A,,Clear,220,2012-12-30 03:55:00
10:55 PM,19.9,14.0,78,30.31,10.0,SW,6.9,-,N/A,,Clear,220,2012-12-30 04:55:00
11:55 PM,19.9,14.0,78,30.32,10.0,SW,3.5,-,N/A,,Clear,230,2012-12-30 05:55:00